User: anonymous   Login
Location: Unspecified
(0.0000°N, 0.0000°E)
Time: 22:25:52
(UTC+02:00)
Language:

NOAA 12 - Orbit

View from above orbital plane
View from above orbital plane
View from above satellite
View from above satellite

Ground track
Ground track

The orbit data is extracted from the following two-line orbital elements,

1 21263U 91032A   16206.58289222 -.00000016  00000-0  11405-4 0  9995
2 21263  98.5935 231.5222 0014207 153.6358 206.5548 14.25817496310042
Epoch (UTC): 24 July 2016 13:59:21
Eccentricity: 0.0014207
inclination: 98.5935°
perigee height: 795 km
apogee height: 816 km
right ascension of ascending node: 231.5222°
argument of perigee: 153.6358°
revolutions per day: 14.25817496
mean anomaly at epoch: 206.5548°
orbit number at epoch: 31004

The dashed part of the orbit path shows where the satellite is in the earth's shadow,  

DLR